Location: Oshawa
(43.9000°N, 78.8670°W)
Time: 09:54:05
(UTC-04:00)

Transit 2A Rocket - Visible Passes

Search period start: 27 June 2017 00:00
Search period end: 07 July 2017 00:00
Orbit: 591 x 913 km, 66.7° (Epoch: 26 June)

Date Brightness Start Highest point End Pass type
(mag) Time Alt. Az. Time Alt. Az. Time Alt. Az.
27 Jun 8.0 03:21:45 10° N 03:25:25 19° NE 03:29:15 10° E visible
28 Jun 8.2 02:40:07 10° N 02:42:33 13° NE 02:45:03 10° ENE visible
28 Jun 5.9 04:20:59 10° NNW 04:26:13 56° NE 04:31:53 10° SE visible
29 Jun 6.8 03:38:48 10° NNW 03:43:41 36° NE 03:48:54 10° ESE visible
29 Jun 8.1 21:43:44 10° WNW 21:45:37 12° NNW 21:47:33 10° N visible
30 Jun 7.4 02:56:44 10° N 03:01:01 24° NE 03:05:33 10° E visible
30 Jun 5.1 04:38:40 10° NW 04:44:02 67° WSW 04:49:49 10° SSE visible
01 Jul 7.9 02:14:52 10° N 02:18:14 17° NE 02:21:46 10° ENE visible
01 Jul 5.3 03:56:15 10° NNW 04:01:38 77° ENE 04:07:28 10° SE visible
02 Jul 8.1 01:33:25 10° N 01:35:20 12° NNE 01:37:18 10° NE visible
02 Jul 6.1 03:13:58 10° NNW 03:19:09 48° NE 03:24:45 10° SE visible
02 Jul 6.0 04:56:55 10° NW 05:01:36 29° WSW 05:06:34 10° S visible
03 Jul 6.8 02:31:49 10° NNW 02:36:35 32° NE 02:41:39 10° ESE visible
03 Jul 5.4 04:14:08 10° NW 04:19:21 48° WSW 04:24:58 10° S visible
04 Jul 7.4 01:49:48 10° N 01:53:53 22° NE 01:58:11 10° E visible
04 Jul 5.1 03:31:35 10° NW 03:37:01 79° WSW 03:42:53 10° SSE visible
05 Jul 7.8 01:08:00 10° N 01:11:03 15° NE 01:14:14 10° ENE visible
05 Jul 5.5 02:49:13 10° NNW 02:54:36 66° NE 03:00:25 10° SE visible
05 Jul 6.4 04:32:44 10° WNW 04:36:49 21° WSW 04:41:06 10° SSW visible
06 Jul 8.0 00:26:54 10° NNE 00:28:06 11° NNE 00:29:20 10° NE visible
06 Jul 6.2 02:06:58 10° NNW 02:12:05 42° NE 02:17:35 10° ESE visible
06 Jul 5.8 03:49:41 10° NW 03:54:39 35° WSW 03:58:18 18° SSW visible
